Regional Weather Roundup
Issued by NWS Burlington, VT

Current Version | Previous Version | Text Only | Print | Product List | Glossary Off
Versions: 1 2 3 4 5 6 7 8 9 10 11 12 13 14 15 16 17 18 19 20 21 22 23 24 25 26 27 28 29 30 31 32 33 34 35 36 37 38 39 40 41 42 43 44 45 46 47 48 49 50

000
ASUS41 KBTV 302330
RWRBTV
VERMONT REGIONAL WEATHER ROUNDUP
NATIONAL WEATHER SERVICE BURLINGTON VT
700 PM EDT TUE JUN 30 2015

NOTE: "FAIR" INDICATES FEW OR NO CLOUDS BELOW 12,000 FEET WITH NO
SIGNIFICANT WEATHER AND/OR OBSTRUCTIONS TO VISIBILITY.

* THESE REPORTS ARE NOT UNDER NWS QUALITY CONTROL AND/OR DO NOT
  REPORT WEATHER SUCH AS PRECIPITATION AND FOG.

VTZ001>019-010000-
_____VERMONT_____


CITY           SKY/WX    TMP DP  RH WIND       PRES   REMARKS
BURLINGTON     CLOUDY    66  61  84 S6        29.90F
MONTPELIER     CLOUDY    64  59  83 S3        29.98F
MORRISVILLE    CLOUDY    66  59  78 CALM      29.95F
ST. JOHNSBURY*   N/A     66  61  84 MISG      29.93F
LYNDONVILLE*   CLOUDY    64  58  83 CALM      29.97S
MIDDLEBURY*    LGT RAIN  65  65 100 CALM      29.90F
RUTLAND*       CLOUDY    64  57  77 SW8       29.92F
SPRINGFIELD    LGT RAIN  65  63  93 CALM      29.93F
HIGHGATE*      LGT RAIN  63  61  93 CALM      29.89F
NEWPORT*       CLOUDY    63  58  83 S5        29.95S
BENNINGTON     CLOUDY    69  63  81 SE7       29.89S
SUTTON*          N/A     59 N/A N/A MISG        N/A
MT. MANSFIELD*   N/A     50 N/A N/A SE18        N/A

_____LAKE CHAMPLAIN_____


CITY           SKY/WX    TMP DP  RH WIND       PRES   REMARKS
BURTON ISLAND*   N/A     64  61  88 S6          N/A
COLCHESTER RF*   N/A     64  61  88 S13         N/A
DIAMOND ISL*     N/A     63  59  88 SW8         N/A

$$

NYZ007-026>031-035-052-083-010000-
_____NORTHERN NEW YORK_____


CITY           SKY/WX    TMP DP  RH WIND       PRES   REMARKS
PLATTSBURGH    CLOUDY    63  59  87 CALM      29.89F
SARANAC LAKE   CLOUDY    62  57  83 S3        29.88S
MASSENA        PTSUNNY   66  58  75 SE9       29.85F
OGDENSBURG*    CLOUDY    63  63 100 SE3       29.82F
POTSDAM*       LGT RAIN  64  63  94 E3        29.83F
WATERTOWN      CLOUDY    68  63  84 CALM      29.79R
FT DRUM        PTSUNNY   65  62  91 SE15      29.80S
ALBANY         PTSUNNY   70  65  84 N3        29.87F
GLENS FALLS    LGT RAIN  63  60  90 N5        29.89F

$$
NHZ002-005-011-010000-
_____NEW HAMPSHIRE_____


CITY           SKY/WX    TMP DP  RH WIND       PRES   REMARKS
LEBANON        CLOUDY    66  62  87 N3        29.93F
KEENE          PTSUNNY   70  63  78 CALM      29.93S
MT WASHINGTON  PTSUNNY   48  46  93 S13         N/A
PLYMOUTH       CLOUDY    69  67  96 CALM      29.94S
WHITEFIELD     CLOUDY    67  61  81 CALM      29.96S

$$

_____REGIONAL QUEBEC LOCATIONS_____


CITY           SKY/WX    TMP DP  RH WIND       PRES   REMARKS
MONTREAL       LGT RAIN  64  59  82 S7        29.88F
QUEBEC CITY    CLOUDY    75  64  69 S3        29.88S
SHERBROOKE     CLOUDY    72  63  73 S2        29.92R

_____REGIONAL ONTARIO LOCATIONS_____


CITY           SKY/WX    TMP DP  RH WIND       PRES   REMARKS
OTTAWA         LGT RAIN  66  59  77 SE8       29.84F

______KEY______
VSB  - VISIBILITY IN MILES
WCI  - WIND CHILL INDEX
HX   - HEAT INDEX
$$
NNNN



USA.gov is the U.S. government's official web portal to all federal, state and local government web resources and services.